• In Hungary
  • List of Countries
  • For 7 days
  • Water Temperature
  • Satellite Maps
  • Weather Map
  • News
  • Weather Widgets
  • user-avatar
    Login

    Hourly Weather Columbus

    Today, 19 October, Thursday

    Time Temperature Precipitation Wind Pressure Humidity
    00:00 +11°C° 0 mm 3 mps 745 mmHg 66%
    01:00 +11°C° 0 mm 3 mps 745 mmHg 68%
    02:00 +11°C° 0 mm 3 mps 745 mmHg 70%
    03:00 +10°C° 0 mm 3 mps 745 mmHg 72%
    04:00 +10°C° 0 mm 3 mps 745 mmHg 73%
    05:00 +10°C° 0 mm 3 mps 745 mmHg 74%
    06:00 +9°C° 0 mm 3 mps 745 mmHg 75%
    07:00 +12°C° 0 mm 4 mps 745 mmHg 69%
    08:00 +14°C° 0 mm 4 mps 746 mmHg 63%
    09:00 +17°C° 0 mm 4 mps 746 mmHg 57%
    10:00 +18°C° 0 mm 4 mps 746 mmHg 54%
    11:00 +20°C° 0 mm 4 mps 746 mmHg 51%
    12:00 +21°C° 0 mm 4 mps 745 mmHg 47%
    13:00 +21°C° 0 mm 4 mps 745 mmHg 48%
    14:00 +22°C° 0 mm 4 mps 745 mmHg 49%
    15:00 +22°C° 0 mm 4 mps 745 mmHg 50%
    16:00 +20°C° 0 mm 4 mps 745 mmHg 57%
    17:00 +18°C° 0 mm 3 mps 745 mmHg 63%
    18:00 +16°C° 0 mm 3 mps 745 mmHg 69%
    19:00 +16°C° 0 mm 3 mps 745 mmHg 72%
    20:00 +15°C° 0 mm 2 mps 746 mmHg 76%
    21:00 +15°C° 0 mm 2 mps 746 mmHg 79%
    22:00 +14°C° 0 mm 2 mps 746 mmHg 81%
    23:00 +14°C° 0 mm 2 mps 746 mmHg 83%

    Tomorrow, 20 October, Friday

    Time Temperature Precipitation Wind Pressure Humidity
    00:00 +13°C° 0 mm 1 mps 746 mmHg 86%
    01:00 +13°C° 0 mm 1 mps 746 mmHg 86%
    02:00 +13°C° 0 mm 1 mps 747 mmHg 87%
    03:00 +12°C° 0 mm 1 mps 747 mmHg 87%
    04:00 +11°C° 0 mm 0 mps 747 mmHg 87%
    05:00 +11°C° 0 mm 0 mps 747 mmHg 87%
    06:00 +11°C° 0 mm 0 mps 747 mmHg 87%
    07:00 +14°C° 0 mm 1 mps 748 mmHg 80%
    08:00 +16°C° 0 mm 1 mps 748 mmHg 73%
    09:00 +19°C° 0 mm 1 mps 748 mmHg 66%
    10:00 +21°C° 0 mm 1 mps 748 mmHg 60%
    11:00 +22°C° 0 mm 1 mps 747 mmHg 54%
    12:00 +23°C° 0 mm 1 mps 747 mmHg 49%
    13:00 +24°C° 0 mm 1 mps 747 mmHg 48%
    14:00 +24°C° 0 mm 1 mps 746 mmHg 48%
    15:00 +24°C° 0 mm 1 mps 746 mmHg 47%
    16:00 +22°C° 0 mm 1 mps 746 mmHg 53%
    17:00 +20°C° 0 mm 1 mps 746 mmHg 60%
    18:00 +18°C° 0 mm 1 mps 746 mmHg 66%
    19:00 +18°C° 0 mm 1 mps 746 mmHg 68%
    20:00 +16°C° 0 mm 2 mps 746 mmHg 70%
    21:00 +16°C° 0 mm 2 mps 746 mmHg 73%
    22:00 +15°C° 0 mm 2 mps 746 mmHg 75%
    23:00 +15°C° 0 mm 2 mps 746 mmHg 77%

    Day after tomorrow, 21 October, Saturday

    Time Temperature Precipitation Wind Pressure Humidity
    00:00 +14°C° 0 mm 2 mps 746 mmHg 79%
    01:00 +14°C° 0 mm 2 mps 746 mmHg 79%
    02:00 +14°C° 0 mm 2 mps 746 mmHg 80%
    03:00 +14°C° 0 mm 2 mps 746 mmHg 81%
    04:00 +13°C° 0 mm 2 mps 746 mmHg 82%
    05:00 +13°C° 0 mm 2 mps 746 mmHg 83%
    06:00 +13°C° 0 mm 2 mps 747 mmHg 84%
    07:00 +15°C° 0 mm 2 mps 747 mmHg 77%
    08:00 +17°C° 0 mm 2 mps 747 mmHg 69%
    09:00 +19°C° 0 mm 3 mps 748 mmHg 62%
    10:00 +20°C° 0 mm 3 mps 747 mmHg 56%
    11:00 +22°C° 0 mm 3 mps 747 mmHg 51%
    12:00 +25°C° 0 mm 3 mps 747 mmHg 45%
    13:00 +25°C° 0 mm 3 mps 746 mmHg 46%
    14:00 +25°C° 0 mm 3 mps 746 mmHg 47%
    15:00 +25°C° 0 mm 3 mps 746 mmHg 48%
    16:00 +22°C° 0 mm 3 mps 746 mmHg 51%
    17:00 +21°C° 0 mm 3 mps 746 mmHg 54%
    18:00 +19°C° 0 mm 3 mps 746 mmHg 57%
    19:00 +18°C° 0 mm 2 mps 746 mmHg 59%
    20:00 +17°C° 0 mm 2 mps 746 mmHg 62%
    21:00 +16°C° 0 mm 2 mps 746 mmHg 64%
    22:00 +16°C° 0 mm 2 mps 746 mmHg 65%
    23:00 +15°C° 0 mm 2 mps 746 mmHg 66%

    22 October, Sunday

    Time Temperature Precipitation Wind Pressure Humidity
    00:00 +15°C° 0 mm 2 mps 746 mmHg 67%
    01:00 +15°C° 0 mm 2 mps 746 mmHg 68%
    02:00 +15°C° 0 mm 2 mps 746 mmHg 69%
    03:00 +15°C° 0 mm 2 mps 746 mmHg 69%
    04:00 +15°C° 0 mm 2 mps 746 mmHg 69%
    05:00 +14°C° 0 mm 3 mps 746 mmHg 69%
    06:00 +14°C° 0 mm 3 mps 746 mmHg 69%
    07:00 +17°C° 0 mm 3 mps 746 mmHg 64%
    08:00 +18°C° 0 mm 4 mps 746 mmHg 59%
    09:00 +20°C° 0 mm 4 mps 746 mmHg 55%
    10:00 +21°C° 0 mm 5 mps 746 mmHg 52%
    11:00 +23°C° 0 mm 5 mps 745 mmHg 50%
    12:00 +24°C° 0 mm 6 mps 745 mmHg 48%
    13:00 +25°C° 0 mm 5 mps 744 mmHg 49%
    14:00 +25°C° 0 mm 5 mps 744 mmHg 50%
    15:00 +25°C° 0 mm 4 mps 743 mmHg 51%
    16:00 +23°C° 0 mm 4 mps 743 mmHg 54%
    17:00 +21°C° 0 mm 4 mps 743 mmHg 56%
    18:00 +20°C° 0 mm 3 mps 743 mmHg 59%
    19:00 +20°C° 0 mm 3 mps 744 mmHg 59%
    20:00 +20°C° 0 mm 3 mps 744 mmHg 58%
    21:00 +20°C° 0 mm 3 mps 744 mmHg 58%
    22:00 +19°C° 0 mm 3 mps 743 mmHg 59%
    23:00 +19°C° 0 mm 3 mps 743 mmHg 60%

    23 October, Monday

    Time Temperature Precipitation Wind Pressure Humidity
    00:00 +19°C° 0 mm 3 mps 743 mmHg 61%
    01:00 +18°C° 0.2 mm 3 mps 743 mmHg 63%
    02:00 +18°C° 0.2 mm 3 mps 742 mmHg 66%
    03:00 +18°C° 0.2 mm 3 mps 742 mmHg 68%
    04:00 +18°C° 0.1 mm 3 mps 742 mmHg 70%
    05:00 +18°C° 0.1 mm 3 mps 742 mmHg 71%
    06:00 +17°C° 0.1 mm 3 mps 742 mmHg 73%
    07:00 +18°C° 0.1 mm 3 mps 742 mmHg 71%
    08:00 +19°C° 0.1 mm 4 mps 742 mmHg 70%
    09:00 +20°C° 0.1 mm 4 mps 742 mmHg 69%
    10:00 +21°C° 0 mm 4 mps 741 mmHg 69%
    11:00 +22°C° 0 mm 4 mps 740 mmHg 68%
    12:00 +23°C° 0 mm 4 mps 739 mmHg 67%
    13:00 +23°C° 0.1 mm 4 mps 739 mmHg 69%
    14:00 +22°C° 0.1 mm 4 mps 738 mmHg 71%
    15:00 +22°C° 0.1 mm 4 mps 738 mmHg 73%
    16:00 +21°C° 0.3 mm 4 mps 737 mmHg 78%
    17:00 +20°C° 0.3 mm 3 mps 737 mmHg 83%
    18:00 +19°C° 0.3 mm 3 mps 737 mmHg 89%
    19:00 +19°C° 0.5 mm 3 mps 736 mmHg 90%
    20:00 +19°C° 0.5 mm 3 mps 736 mmHg 92%
    21:00 +19°C° 0.5 mm 2 mps 735 mmHg 93%
    22:00 +19°C° 0.2 mm 3 mps 734 mmHg 93%
    23:00 +18°C° 0.2 mm 3 mps 734 mmHg 93%

    24 October, Tuesday

    Time Temperature Precipitation Wind Pressure Humidity
    00:00 +18°C° 0.2 mm 3 mps 733 mmHg 94%
    01:00 +17°C° 0.1 mm 4 mps 733 mmHg 90%
    02:00 +17°C° 0.1 mm 4 mps 733 mmHg 86%
    03:00 +15°C° 0.1 mm 4 mps 732 mmHg 82%
    04:00 +14°C° 0 mm 4 mps 733 mmHg 79%
    05:00 +12°C° 0 mm 3 mps 733 mmHg 75%
    06:00 +11°C° 0 mm 3 mps 733 mmHg 71%
    07:00 +12°C° 0 mm 4 mps 733 mmHg 72%
    08:00 +12°C° 0 mm 4 mps 733 mmHg 72%
    09:00 +12°C° 0 mm 4 mps 734 mmHg 72%
    10:00 +13°C° 0 mm 5 mps 734 mmHg 65%
    11:00 +14°C° 0 mm 5 mps 734 mmHg 58%
    12:00 +15°C° 0 mm 5 mps 734 mmHg 51%
    13:00 +15°C° 0 mm 5 mps 734 mmHg 48%
    14:00 +15°C° 0 mm 5 mps 734 mmHg 45%
    15:00 +15°C° 0 mm 5 mps 734 mmHg 42%
    16:00 +14°C° 0 mm 4 mps 734 mmHg 44%
    17:00 +13°C° 0 mm 4 mps 734 mmHg 46%
    18:00 +12°C° 0 mm 3 mps 735 mmHg 48%
    19:00 +11°C° 0 mm 3 mps 735 mmHg 51%
    20:00 +10°C° 0 mm 3 mps 735 mmHg 53%
    21:00 +9°C° 0 mm 3 mps 735 mmHg 56%
    22:00 +9°C° 0 mm 3 mps 735 mmHg 58%
    23:00 +8°C° 0 mm 2 mps 735 mmHg 60%
    Show more